sat.trackr.live / text

‹ back to catalog

STARLINK-11474 [DTC]

NORAD 62065 · 2024-217J

PAYLOAD ACTIVE UNKNOWN

§ Identity

Operator
Country
US
Launch date
2024-11-24
Launch site
AFWTR
Launch vehicle
Mass (kg)
RCS (m²)

Purposes: comms

External: N2YO · Heavens-Above · Gunter

§ Orbital elements

Epoch: 2026-05-25T03:06:30.184128Z

Period
91.74 min
Inclination
53.1564°
Eccentricity
0.0000884
Mean motion
15.69727472 rev/d
Perigee alt
359.1 km
Apogee alt
360.3 km
Semi-major
6,737.8 km
B*
7.7581e-4
RAAN
54.1146°
Arg perigee
97.7157°
Mean anomaly
262.3962°
Rev number
8,718

§ Raw data

STARLINK-11474 [DTC]1 62065U 24217J   26145.12951602  .00094545  00000+0  77581-3 0  99962 62065  53.1564  54.1146 0000884  97.7157 262.3962 15.69727472 87186

JSON: /api/v1/satellites/62065 · /tle

For live sub-satellite position, see the globe view (requires WebGL).

§ Visibility from observer

Set your observer location to see the next 7 days of passes ≥ 10°. The values pass through the URL so the page stays shareable.

No JS? Fill the form by hand. The geolocation button needs JavaScript.